TIME,DELAY(SENSOR),PRES,OXYGEN,RAWTEMP,T(OPTODE),TCPHASE,FLUOR,BETA(BETA700),BETA(BETA412),BETA(BETA440),CDOM,C(CSC),ED(ED411.90),ED(ED443.80),ED(ED489.40),ED(ED554.70),LU(LU412.20),LU(LU443.80),LU(LU489.40),LU(LU555.00),COMP,TILTX,TILTY,CHECK
1347141408,5805,896.2899780273438000,166.1398010253906200,416.7788085937500000,10.4643697738647460,39.3447189331054700,51,107,100,84,73,15296,2147459145,2147785389,2147574226,2147820809,2147305142,2147451977,2147742857,2148268406,2717,6,14,42240
1347145004,5800,10.3999996185302730,187.9985046386718800,494.6184997558594000,8.0484905242919920,39.1347808837890600,50,109,100,83,74,15291,2147444553,2147794761,2147583168,2147825517,2147306678,2147449709,2147759972,2148279588,2175,6,14,51920
1347148604,5800,1017.0000000000000000,197.3354034423828000,507.4982910156250000,7.6452221870422360,38.7615203857421900,51,108,101,82,75,15288,2147443318,2147799222,2147582637,2147830134,2147303012,2147445641,2147761920,2148280420,2926,6,14,43198
1347152204,5804,12.1999998092651370,199.5231933593750000,509.1780090332031000,7.5925469398498535,38.6561012268066400,51,107,100,82,74,15287,2147438683,2147796873,2147584265,2147828900,2147304676,2147450514,2147760512,2148280347,157,6,14,29162
1347155804,5802,1090.0000000000000000,200.9947967529297000,511.3557128906250000,7.5242261886596680,38.6037483215332000,50,105,101,83,74,15284,2147439140,2147797001,2147585673,2147830656,2147305444,2147445165,2147764022,2148276681,3397,6,14,27606
1347159404,5806,12.3000001907348630,202.6163940429687500,514.1928710937500000,7.4351649284362790,38.5542488098144500,51,105,99,82,75,15286,2147441828,2147801051,2147583296,2147829220,2147301120,2147446966,2147763638,2148280621,3243,6,14,46022
1347163004,5804,1039.0000000000000000,204.4506988525390600,515.4119873046875000,7.3968791961669920,38.4648818969726560,51,106,101,83,75,15252,2147438089,2147793206,2147581878,2147832832,2147303104,2147453897,2147761865,2148282870,3393,6,14,11557
1347166604,5804,13.6000003814697270,205.9859924316406200,516.1743774414062000,7.3729319572448730,38.3863792419433600,52,104,100,81,75,15282,2147435968,2147797211,2147580059,2147832054,2147305700,2147445677,2147768374,2148281709,122,6,14,7270
1347170204,5803,13.8999996185302730,206.3526000976562500,516.3270263671875000,7.3681378364562990,38.3674888610839840,51,108,100,81,74,15284,2147441316,2147799040,2147583533,2147827757,2147307428,2147446436,2147766317,2148279661,3128,6,14,46616
1347173804,5805,13.6000003814697270,204.6295013427734400,514.2186889648438000,7.4343547821044920,38.4326400756835940,52,110,99,82,75,15283,2147439387,2147795693,2147587355,2147829750,2147302400,2147453101,2147763245,2148278985,3031,6,14,37032
1347177404,5805,1087.0000000000000000,204.2061004638672000,514.3198852539062000,7.4311780929565430,38.4600791931152340,51,106,101,83,75,15280,2147437485,2147795108,2147586697,2147829888,2147304630,2147451227,2147765293,2148279442,434,6,14,5185
1347181004,5802,13.5000000000000000,204.5303955078125000,514.1381835937500000,7.4368829727172850,38.4380989074707000,51,106,99,81,75,15285,2147435968,2147799890,2147584365,2147829842,2147307126,2147448137,2147763958,2148276050,181,6,14,47342
1347184604,5807,13.5000000000000000,202.8571929931640600,512.3068847656250000,7.4943718910217285,38.5062294006347660,50,106,99,83,74,15265,2147435602,2147796379,2147583808,2147830939,2147304576,2147450084,2147762084,2148278162,76,6,14,25986
1347188204,5805,1399.0000000000000000,202.4275970458984400,510.7054138183594000,7.5446310043334960,38.5047607421875000,52,109,100,82,74,15262,2147435858,2147794468,2147583350,2147829851,2147303981,2147450514,2147763364,2148278701,563,6,14,11657
1347191804,5807,12.5000000000000000,196.1360015869140600,503.8422851562500000,7.7598080635070800,38.7728691101074200,51,106,99,82,75,15267,2147441755,2147797494,2147583140,2147831058,2147304054,2147450477,2147757714,2148279094,70,6,13,30683
1347195404,5805,10.6000003814697270,195.8699951171875000,503.6127014160156000,7.7669978141784670,38.7854194641113300,52,107,99,81,74,15267,2147439158,2147795894,2147583369,2147829833,2147303433,2147452269,2147759579,2148277184,2814,6,14,44063
1347199004,5803,1099.0000000000000000,193.8256988525390600,503.7633056640625000,7.7622818946838380,38.9173698425293000,51,106,101,82,75,15265,2147439305,2147796059,2147583405,2147830235,2147305389,2147452982,2147760246,2148276946,584,6,14,38333
1347202604,5801,11.8000001907348630,193.2507019042968800,503.9728088378906000,7.7557191848754880,38.9585113525390600,51,106,100,83,74,15265,2147438244,2147794678,2147583058,2147828333,2147304996,2147454052,2147764617,2148278482,3515,6,14,49707
1347206204,5806,1055.0000000000000000,193.2223968505859400,505.1484069824219000,7.7188820838928220,38.9803581237793000,51,113,101,82,75,15263,2147438226,2147796800,2147583926,2147829933,2147304393,2147456210,2147762294,2148277458,11,6,14,12232
1347209804,5805,11.8999996185302730,197.6726074218750000,507.8548889160156000,7.6340432167053220,38.7470893859863300,51,107,100,82,74,15262,2147437202,2147793572,2147583277,2147829705,2147307995,2147448685,2147757467,2148278217,3455,6,14,19904
1347213404,5803,11.3000001907348630,197.6056060791015600,507.0603027343750000,7.6589550971984860,38.7370910644531250,51,116,100,82,74,15263,2147443401,2147795026,2147584137,2147828516,2147303753,2147448347,2147759341,2148277577,3496,6,14,31232
1347217004,5804,11.6999998092651370,197.3376007080078000,507.0577087402344000,7.6590361595153810,38.7540702819824200,51,107,100,81,75,15263,2147441307,2147796498,2147586121,2147829760,2147303670,2147446966,2147760155,2148278189,3430,6,14,29783
1347220604,5804,11.1999998092651370,197.3515930175781200,506.6706848144531000,7.6711668968200680,38.7463302612304700,52,106,101,81,74,15255,2147439396,2147795931,2147584758,2147829769,2147305380,2147447378,2147760585,2148279588,3376,6,14,64664
1347224204,5803,1069.0000000000000000,197.2494964599609400,506.6943054199219000,7.6704277992248535,38.7536392211914060,51,107,100,82,75,15254,2147437056,2147797357,2147583570,2147827410,2147305462,2147449947,2147760594,2148279936,3476,6,14,29623
1347227804,5802,12.1999998092651370,196.4382019042968800,506.6506958007812500,7.6717967987060550,38.8032188415527340,51,110,99,82,74,15245,2147438665,2147794166,2147582665,2147827748,2147304786,2147452269,2147762706,2148276086,3377,6,14,47697
1347231404,5805,11.1000003814697270,195.9609985351562500,506.3723144531250000,7.6805238723754880,38.8285293579101560,52,107,100,81,75,15243,2147441892,2147794971,2147584905,2147828114,2147303213,2147450011,2147761435,2148280009,13,6,14,60666
1347235004,5802,1084.0000000000000000,196.0962066650390600,506.4660949707031000,7.6775841712951660,38.8210411071777340,51,106,101,83,75,15243,2147439908,2147797933,2147581677,2147828452,2147305033,2147450121,2147764809,2148279945,3536,6,14,19056
1347238604,5804,12.8000001907348630,195.2169952392578000,506.6330871582031000,7.6723480224609375,38.8793907165527340,50,108,99,81,75,15241,2147436114,2147801508,2147583305,2147826852,2147304649,2147449764,2147763940,2148277842,239,6,14,38048
1347242204,5807,1175.0000000000000000,195.1851959228515600,507.0180053710937500,7.6602811813354490,38.8886184692382800,51,105,99,81,74,15229,2147441828,2147797220,2147582482,2147828498,2147307209,2147448420,2147759140,2148279652,78,6,14,54976
1347245804,5801,1064.0000000000000000,195.0935974121093800,507.7638854980469000,7.6368951797485350,38.9077796936035160,51,105,100,82,74,15231,2147441462,2147796434,2147584201,2147829357,2147304054,2147452013,2147760466,2148283126,3380,6,14,22856
1347249404,5804,11.3000001907348630,195.5341949462890600,508.4588928222656000,7.6151018142700195,38.8914299011230500,52,105,104,83,75,15219,2147440438,2147794934,2147582628,2147828306,2147303753,2147451053,2147760009,2148277138,3113,6,14,10896
1347253004,5804,1014.0000000000000000,196.4620971679687500,507.4169921875000000,7.6477718353271480,38.8151893615722660,51,105,100,82,75,15229,2147440512,2147799296,2147585755,2147828333,2147304649,2147450514,2147761417,2148279451,437,6,14,64318
1347256604,5805,1014.0000000000000000,198.3852996826172000,507.5992126464844000,7.6420569419860840,38.6983489990234400,51,107,98,83,74,15218,2147438976,2147796114,2147581458,2147829220,2147304054,2147452214,2147761024,2148277184,3143,6,14,25459
1347260204,5804,1177.0000000000000000,197.7539978027343800,508.7239074707031000,7.6067891120910645,38.7575798034668000,51,106,99,82,74,15217,2147435977,2147796352,2147586614,2147825892,2147302564,2147452900,2147760740,2148278125,3514,6,14,15061
1347263804,5804,10.0000000000000000,197.5462036132812500,508.9612121582031000,7.5993490219116210,38.7741317749023440,52,108,101,82,74,15219,2147439597,2147798738,2147586340,2147830290,2147304713,2147445184,2147760512,2148280905,176,6,14,13845
1347267404,5805,1057.0000000000000000,199.1515045166015600,508.7697143554687500,7.6053538322448730,38.6709785461425800,51,105,100,82,75,15217,2147435446,2147793691,2147582262,2147832310,2147306048,2147445641,2147759387,2148278464,3491,6,14,16121
1347271004,5803,11.6000003814697270,199.4969024658203000,508.7814941406250000,7.6049852371215820,38.6505393981933600,51,107,101,82,75,15219,2147443611,2147796434,2147583149,2147830144,2147306093,2147449316,2147765174,2148281106,125,6,14,23530
1347274604,5805,10.6999998092651370,199.0704956054687500,508.6442871093750000,7.6092858314514160,38.6738281250000000,50,108,99,82,74,15217,2147439670,2147795949,2147585417,2147831085,2147303268,2147454116,2147762514,2148279881,103,6,14,27404
1347278204,5801,10.5000000000000000,196.9257049560547000,506.3822937011719000,7.6802101135253910,38.7684898376464840,51,107,100,82,74,15215,2147439570,2147792859,2147585810,2147828077,2147304667,2147453467,2147762752,2148277632,3522,6,14,41472
1347281804,5799,12.1999998092651370,196.0601959228515600,506.2827148437500000,7.6833329200744630,38.8204193115234400,51,106,100,82,75,15216,2147436973,2147796964,2147584502,2147828900,2147304850,2147454482,2147761353,2148277961,223,6,14,20765
1347283856,5803,12.6999998092651370,194.3016052246093800,506.2637939453125000,7.6839251518249510,38.9310188293457000,51,106,99,82,75,15215,2147438262,2147794925,2147583469,2147831597,2147302345,2147452745,2147764022,2148277440,3271,6,14,35402
